Dewpoint
68 68 67 67 67 68 67 69 69 69 68 68 67 66 65 63 61 61 60 59 61 61 62 60 60 64 66 66 66 65 63 61 61
69 69 68 67 67 68 66 68 68 68 68 68 67 66 64 62 61 60 60 60 61 61 60 60 58 59 64 66 66 65 62 61 61
68 69 69 68 67 68 68 68 67 67 68 68 68 66 64 62 62 61 60 61 63 63 61 61 61 60 62 66 66 64 62 61 61
67 67 68 68 66 65 67 67 67 67 67 68 67 66 64 62 62 61 59 61 63 65 65 65 65 64 65 65 65 64 62 62 62
66 66 67 67 66 66 68 66 66 65 65 65 66 65 64 62 62 61 60 62 63 65 63 63 63 63 63 64 64 63 62 61 60
64 63 65 67 67 67 67 66 65 66 66 66 66 65 61 61 61 61 62 63 63 65 63 62 62 62 62 59 62 62 62 61 60
63 63 64 66 65 67 67 66 63 63 62 64 65 63 59 59 61 62 63 62 63 65 64 63 62 61 60 59 61 61 61 61 58
64 64 64 63 65 63 65 64 61 58 58 59 61 59 58 58 62 62 63 63 62 64 64 62 61 60 58 58 59 61 59 60 61
64 65 65 63 62 60 60 61 60 57 56 57 58 57 57 57 61 62 63 63 62 65 62 60 59 59 57 56 59 60 58 60 59
65 64 64 64 64 61 60 62 58 57 56 55 57 57 58 59 58 63 62 63 62 64 63 61 59 58 59 60 58 59 59 60 59
52 61 64 64 64 63 60 59 57 54 54 54 55 57 58 58 58 60 63 62 61 62 64 63 61 60 59 57 57 60 60 59 58
45 51 65 65 65 64 62 60 56 52 49 49 52 54 56 58 59 61 59 61 61 62 62 63 61 61 58 57 56 55 59 58 56
42 47 51 62 65 64 62 60 57 53 51 49 47 49 54 56 59 59 59 60 59 61 62 61 63 62 59 58 57 58 58 56 56
36 43 43 48 57 64 63 62 58 55 52 51 49 46 47 53 56 58 59 58 58 57 58 61 62 62 61 60 58 58 57 57 57
31 36 40 46 49 54 61 62 60 56 54 51 50 49 48 49 54 56 59 58 57 55 54 57 60 62 62 61 59 58 57 58 57
29 34 37 41 43 47 51 56 60 58 55 52 51 51 51 50 51 55 57 59 56 55 54 55 58 61 62 62 60 58 56 55 55
25 28 32 36 40 44 47 49 56 58 57 52 51 50 50 51 52 54 55 57 58 56 55 56 58 60 62 62 60 59 57 55 54
24 26 29 32 35 38 42 44 47 54 57 56 52 48 48 49 51 53 55 55 56 57 57 57 56 59 61 61 60 59 58 57 55
23 24 26 28 30 32 35 36 41 45 52 55 56 52 48 46 46 50 53 55 53 55 56 57 57 58 60 61 60 59 58 58 55
22 24 25 26 27 30 31 34 38 42 45 51 54 54 51 49 45 45 49 53 56 56 56 57 57 57 59 60 60 58 58 59 57
Wind_Speed
7 8 8 12 9 9 12 10 11 12 14 16 16 15 13 9 10 9 7 9 10 9 8 10 10 14 13 15 18 21 21 20 20
10 7 8 9 10 9 10 10 9 11 14 15 15 14 11 9 8 8 8 10 9 11 10 11 11 10 11 15 16 19 20 19 19
10 10 8 8 9 11 10 8 6 9 11 13 13 12 9 7 8 7 7 9 9 10 11 12 11 10 9 15 16 18 20 18 18
10 11 11 10 9 9 11 9 7 10 12 14 12 11 9 5 6 6 8 8 10 12 16 14 14 13 15 15 17 17 18 19 18
13 13 12 12 11 10 8 10 8 7 13 15 14 11 6 6 6 5 6 9 12 11 14 15 16 16 14 15 17 16 18 17 15
13 14 15 16 16 14 12 9 8 8 4 10 15 13 9 6 7 6 12 11 11 10 13 15 13 14 14 14 14 15 14 17 17
14 14 16 16 16 13 13 13 10 10 11 11 11 12 9 9 8 3 12 12 11 12 14 14 17 15 14 13 13 12 14 16 13
11 10 13 13 14 13 13 12 13 14 11 12 14 13 11 10 9 8 14 12 12 12 16 13 13 14 14 13 13 12 13 16 15
13 12 13 15 14 15 14 12 12 13 14 14 15 14 13 11 10 13 16 15 15 14 18 16 15 15 14 14 13 12 13 16 15
13 14 15 15 14 16 15 12 10 11 13 14 15 15 15 14 12 10 20 18 16 16 19 18 16 17 18 16 14 12 14 15 16
17 15 14 17 17 17 15 15 14 14 14 16 15 16 16 16 16 15 16 16 16 16 18 18 18 18 20 20 17 14 14 16 15
22 19 14 14 15 20 16 15 16 16 14 16 16 16 18 16 18 15 15 17 17 16 19 20 20 21 19 20 21 19 17 17 15
20 20 19 11 12 18 18 16 17 17 16 15 15 16 16 17 17 19 16 15 16 17 18 21 22 23 22 20 20 21 21 17 15
19 18 19 20 12 16 18 18 18 17 17 16 15 16 17 17 16 17 19 17 16 15 19 21 20 24 23 21 21 22 20 18 20
19 18 19 17 16 15 12 17 17 18 18 16 16 15 16 17 17 17 17 19 19 18 17 17 18 21 26 23 22 22 22 20 21
19 15 17 17 16 15 16 12 19 21 18 13 12 14 15 17 18 17 16 18 19 19 19 17 15 16 25 22 23 23 23 23 21
18 19 17 18 17 15 16 13 9 13 12 13 13 10 16 19 20 19 18 19 17 19 20 19 17 16 18 23 23 24 24 24 22
18 18 17 17 17 16 17 16 17 12 16 17 11 8 11 17 19 23 21 21 20 20 20 21 20 18 18 22 24 25 25 24 25
19 19 17 17 15 17 16 13 14 13 13 13 22 16 8 15 12 19 23 21 24 23 20 20 22 20 18 22 24 28 28 26 26
19 18 19 18 17 17 18 17 16 13 14 13 13 21 12 14 14 15 20 21 20 20 21 20 21 21 19 20 22 29 29 27 27
Wind_Direction
128 152 163 157 150 158 160 141 134 135 136 139 140 137 141 169 115 110 106 95 111 113 110 107 111 102 92 103 107 108 104 102 100
134 128 132 146 145 157 156 134 140 148 146 146 147 147 163 141 130 117 114 115 132 128 132 130 127 114 106 111 114 114 109 104 108
157 149 147 153 163 158 142 148 166 166 162 158 157 161 180 163 134 125 119 133 141 146 137 127 132 132 135 120 114 117 113 108 113
173 169 168 170 181 184 153 167 187 192 188 172 166 169 190 167 140 142 135 154 144 128 127 121 123 128 125 124 117 119 115 111 113
188 181 186 179 187 194 183 176 183 212 203 188 165 169 194 200 164 147 126 163 155 149 140 126 119 114 110 112 113 114 119 121 118
203 198 189 193 188 188 189 197 182 172 169 166 162 173 197 207 203 177 153 170 163 169 155 142 134 119 117 108 114 113 118 122 124
217 205 201 205 199 197 194 189 188 199 182 173 171 202 201 210 208 187 173 178 170 170 164 151 145 144 132 134 114 129 135 127 128
234 218 208 213 207 207 205 204 209 212 213 198 200 215 212 211 205 185 190 190 182 181 169 156 153 153 158 145 142 145 142 130 133
240 214 212 217 209 215 210 206 215 223 219 215 222 217 216 215 203 188 201 197 188 178 170 165 167 166 161 167 165 154 154 144 146
300 239 219 220 221 216 214 210 199 215 221 222 224 225 217 224 204 199 199 204 194 181 182 179 177 175 164 166 165 167 158 159 149
329 310 241 227 224 223 216 213 207 213 218 218 220 225 225 224 222 206 193 203 198 194 187 189 187 186 176 173 171 166 166 163 156
344 332 251 231 232 225 218 219 218 219 217 221 220 225 227 218 223 223 199 199 204 202 201 200 196 194 191 185 179 179 173 163 167
340 341 351 304 233 237 216 214 216 216 212 216 219 223 226 230 225 222 218 210 200 210 218 211 201 200 195 192 188 185 180 173 177
346 337 333 336 327 225 226 214 212 210 211 215 217 221 223 226 231 229 223 216 216 210 208 222 221 203 203 195 193 186 185 180 183
345 336 331 339 340 358 297 228 218 213 204 209 217 217 225 225 226 228 228 221 217 222 227 214 226 213 203 202 193 192 192 186 186
343 338 334 335 335 330 301 310 232 208 201 191 216 229 221 226 226 224 223 220 219 223 225 224 217 214 201 211 193 192 194 192 192
339 337 332 329 325 329 325 320 293 210 211 182 196 214 225 225 223 224 221 221 214 223 225 226 220 214 200 202 197 190 196 195 196
333 331 328 327 329 326 328 344 325 283 196 212 203 200 222 215 217 217 221 219 215 218 221 223 224 219 201 196 196 192 195 199 199
325 325 323 322 319 316 315 319 301 303 290 210 242 235 207 209 210 214 217 220 222 218 218 218 221 219 213 197 194 195 193 198 202
321 319 320 317 316 310 307 310 309 292 286 314 214 233 228 210 223 217 217 213 215 216 214 212 217 218 215 204 198 194 195 198 205